User: anonymous   Login
Location: Unspecified
(0.0000°N, 0.0000°E)
Time: 07:52:48
(UTC+02:00)
Language:

ARIANE 5 R/B - Orbit

View from above orbital plane
View from above orbital plane
View from above satellite
View from above satellite

Ground track
Ground track

The orbit data is extracted from the following two-line orbital elements,

1 27387U 02009B   14295.81975964  .00000208  00000-0  85839-4 0  3045
2 27387 098.3314 254.1549 0033362 146.2991 269.2150 14.35748700662587
Epoch (UTC): 22 October 2014 19:40:27
Eccentricity: 0.0033362
inclination: 98.3314°
perigee height: 749 km
apogee height: 796 km
right ascension of ascending node: 254.1549°
argument of perigee: 146.2991°
revolutions per day: 14.35748700
mean anomaly at epoch: 269.2150°
orbit number at epoch: 66258

The dashed part of the orbit path shows where the satellite is in the earth's shadow,  

DLR